* Astronomy

Members Login
Username 
 
Password 
    Remember Me  
Post Info TOPIC: ARIANE 44L Rocket Debris re-entry


L

Posts: 131433
Date:
RE: ARIANE 44L Rocket Debris re-entry
Permalink  
 


Update:
Debris from an ARIANE 44L rocket re-entered the Earths atmosphere on the 21st October, 2011 @ 20:44 GMT  ± 1 minute.

Inclination: 6.83°
Revolution Number: 37723
Predicted Location:  7°S, 237°E



__________________


L

Posts: 131433
Date:
Permalink  
 

Update:
Debris from an ARIANE 44L rocket is predicted to re-enter the Earths atmosphere on the 21st October, 2011 @ 20:32 GMT  ± 3 hours.

ARIANE 44L DEB
1 24822U 97027D   11293.95318304 +.08691188 -33314-4 +41042-2 0 00873
2 24822 006.7872 307.7020 0137207 151.2128 209.6435 16.02051162377076

Period:       89.43 minutes
Inclination: 6.83°
Apogee:     322 km
Perigee:     171 km
Revolution Number: 37723
Predicted Location:  4°S, 178.3°E



__________________


L

Posts: 131433
Date:
Permalink  
 

Update:
Debris from an ARIANE 44L rocket is predicted to re-enter the Earths atmosphere on the 21st October, 2011 @ 20:44 GMT  ± 48 hours.

ARIANE 44L DEB
1 24822U 97027D   11292.13309127  .04705872 -31413-4  44584-2 0   824
2 24822 006.7879 323.0928 0219304 121.7512 240.4289 15.77415398376782

Period:       92.12 minutes
Inclination: 6.8°
Apogee:     563 km
Perigee:     194 km
Revolution Number: 37721
Predicted Location:  6.7°S, 222.4°E



__________________


L

Posts: 131433
Date:
Permalink  
 

Debris from an ARIANE 44L rocket that was launched on the 3rd June, 1997, from the Kourou launch facility, for the INSAT-2D satellite mission is predicted to re-enter the Earths atmosphere on the 21st October, 2011 @ 18:59 GMT  ± 48 hours.

ARIANE 44L DEB
1 24822U 97027D 11290.48206810 .03305932 -30352-4 39388-2 0 767 2 24822 006.8017 336.7328 0273371 095.2772 267.5816 15.63140754376523

Period:       92.16 minutes
Inclination: 6.8°
Apogee:     564 km
Perigee:     197 km
Revolution Number: 37721
Predicted Location:  2.5°S, 188.2°E



__________________
Page 1 of 1  sorted by
 
Quick Reply

Please log in to post quick replies.



Create your own FREE Forum
Report Abuse
Powered by ActiveBoard